Notices

What's New in latest Release from April 7th, 2021:

- Updated Glossary, including Speed of Maximum Gust, and Total Hourly Precipitation

- Updated national and regional climate services offices contacts and prices information

- Addition of station inventory lists for 1981-2010, 1971-2000, and 1961-1990 Normals.

If you haven't already, please take our survey and provide feedback about our website: https://eccc.sondage-survey.ca/f/LanguageSelection.aspx?s=442ca660-fcf1-47c0-95a9-59707d6fd709

Hourly Data Report for December 10, 2016

CARBERRY CS
MANITOBA

49°54'20.900" N
99°21'26.800" W
383.50 m
5010547
71170
WZE

Download Data

Hourly Data (December 2016)
Hourly Data Report for December 10, 2016
TIME
LST
Temp Definition
°C
Dew Point Definition
°C
Rel Hum Definition
%
Precip. Amount Definition
mm

Wind Dir Definition
10's deg

Wind Spd Definition
km/h
Visibility Definition
km
Stn Press Definition
kPa
Hmdx Definition


Wind Chill Definition


Weather Definition


00:00 -30.0 -32.9 76 0.0 21 3   98.66   -33 LegendNANA
01:00 -29.9 -32.9 75 0.0 21 8   98.63   -38 LegendNANA
02:00 -32.1 -35.4 72 0.0 22 4   98.58   -37 LegendNANA
03:00 -30.0 -33.1 74 0.0 22 8   98.56   -38 LegendNANA
04:00 -30.6 -33.8 73 0.0 22 5   98.53   -36 LegendNANA
05:00 -31.1 -34.3 74 0.0 21 8   98.48   -39 LegendNANA
06:00 -34.1 -37.6 71 0.0 20 5   98.37   -40 LegendNANA
07:00 -33.6 -37.0 71 0.0 19 10   98.32   -43 LegendNANA
08:00 -33.4 -36.9 71 0.0 18 8   98.28   -42 LegendNANA
09:00 -32.2 -35.8 71 0.0 20 9   98.25   -41 LegendNANA
10:00 -29.8 -33.5 70 0.7 22 6   98.26   -36 LegendNANA
11:00 -27.1 -30.8 71 0.7 21 4   98.15   -31 LegendNANA
12:00 -25.9 -29.6 71 0.0 18 5   98.07   -31 LegendNANA
13:00 -23.3 -26.9 72 0.0 17 5   97.99   -28 LegendNANA
14:00 -23.2 -26.8 72 0.0 17 12   97.92   -32 LegendNANA
15:00 -23.5 -26.9 74 0.0 17 10   97.84   -31 LegendNANA
16:00 -24.7 -28.0 74 0.0 16 8   97.83   -32 LegendNANA
17:00 -26.0 -28.9 76 0.0 19 7   97.80   -33 LegendNANA
18:00 -28.5 -31.6 75 0.0 18 2   97.75   -31 LegendNANA
19:00 -32.1 -35.6 71 0.0   0   97.72     LegendNANA
20:00 -34.0 -37.5 70 0.0 8 3   97.67   -38 LegendNANA
21:00 -34.9 -38.5 70 0.0 11 4   97.64   -40 LegendNANA
22:00 -35.7 -39.3 69 0.0 6 4   97.62   -41 LegendNANA
23:00 -36.0 -39.6 70 0.0 5 2   97.64   -39 LegendNANA

Notes on Data Quality.

Legend

  • E = Estimated
  • M = Missing
  • NA = Not Available*
  • [empty] = Indicates an unobserved value
Date modified: